SAUDICOMSAT 1

Last updated on Thu Aug 20 2026 00:03:14 GMT+0000 (Coordinated Universal Time)

1 28369U 04025D 26230.98693735 .00000214 00000+0 60132-4 0 9994 2 28369 98.5790 242.8198 0031888 188.9460 171.1172 14.55511849173268
UTC large
Height (km)
Speed (km/s)
/
Latitude / Longitude
Inclination (degrees)
Orbital Period (minutes)
Azimuth
Elevation
Range (km)
Doppler Factor

Next 0 passes for location: London (51.5072 / 0.1276)

No passes found over London.
SAUDICOMSAT 1